{"data":{"norad_id":62277,"epoch":"2026-09-21T11:30:02.365920Z","epoch_age_seconds":93032,"freshness":"FRESH","line1":"1 62277U 24237L   26264.47919405  .00133460  00000+0  10254-2 0  9991","line2":"2 62277  43.0028 316.5738 0002672 316.3212  43.7444 15.70875179103843","mean_motion":15.70875179,"eccentricity":0.0002672,"inclination_deg":43.0028,"raan_deg":316.5738,"arg_perigee_deg":316.3212,"mean_anomaly_deg":43.7444,"bstar":0.0010254,"rev_number":10384,"period_min":91.668645558248,"perigee_km":354.59504845826,"apogee_km":358.19398210003,"semimajor_km":6734.5315152791,"source":"CELESTRAK","updated_at":"2026-09-22T09:00:49.567736Z"}}